Flag for U.S.A. Weather past 2 weeks in Augusta, Maine, U.S.A.

Now
63 °F

Fog.


Feels Like: 63 °F
Forecast: 47 / 69 °F
Wind: No wind

Location: Augusta State Airport

Current Time: Sep 21, 2014 at 10:52:59 PM

Latest Report: Sep 21, 2014 at 9:53 PM


Visibility: 0 mi

Pressure: 29.63 "Hg

Humidity: 100%

Dew point: 63 °F

Location of AugustaLocation

Historic Weather in Augusta — Graph

°F

Augusta temperature yesterday

Maximum temperature yesterday: 60 °F (at 3:53 PM)
Minimum temperature yesterday: 36 °F (at 5:53 AM)
Average temperature yesterday: 50 °F

Past Weeks' High & Low Weather Summary

 TemperatureHumidityPressure
High73 °F (Sep 7, 1:53 PM)100% (Sep 9, 7:03 AM)30.44 "Hg (Sep 9, 7:03 AM)
Low36 °F (Sep 19, 6:53 AM)25% (Sep 19, 4:53 PM)29.63 "Hg (Sep 21, 9:53 PM)
Average56 °F75%30.12 "Hg
* Reported Sep 6 9:53 PM — Sep 21 9:53 PM, Augusta, Weather by CustomWeather, © 2014

Note: Actual official high and low records may vary slightly from our data, if they occured in-between our weather recording intervals... More about our weather records

Advertising

Augusta weather history for previous 24 hours

 ConditionsComfort  
Time TempWeatherWind HumidityBarometerVisibility
9:53 PM
Sep 21
63 °FFog.No wind100%29.63 "Hg0 mi
8:53 PM63 °FFog.5 mph100%29.65 "Hg0 mi
7:53 PM65 °FFog.6 mph100%29.68 "Hg0 mi
6:53 PM65 °FFog.7 mph100%29.70 "Hg0 mi
5:53 PM66 °FFog.7 mph100%29.73 "Hg0 mi
4:53 PM68 °FLow clouds.6 mph93%29.75 "Hg7 mi
3:53 PM69 °FLow clouds.12 mph90%29.76 "Hg8 mi
2:53 PM69 °FOvercast.14 mph87%29.79 "Hg10 mi
1:53 PM68 °FMostly cloudy.10 mph90%29.82 "Hg9 mi
12:53 PM64 °FFog.7 mph97%29.86 "Hg1 mi
11:53 AM63 °FFog.12 mph97%29.90 "Hg1 mi
10:53 AM62 °FLight rain. Fog.7 mph96%29.92 "Hg2 mi
9:57 AM60 °FRain. Fog.5 mph100%29.94 "Hg2 mi
8:53 AM60 °FLight rain. Fog.3 mph93%29.96 "Hg6 mi
7:53 AM59 °FLow clouds.5 mph93%29.96 "Hg8 mi
7:01 AM58 °FMostly cloudy.7 mph93%29.97 "Hg10 mi
5:53 AM58 °FOvercast.6 mph90%29.97 "Hg10 mi
5:01 AM56 °FPassing clouds.7 mph93%29.97 "Hg9 mi
3:53 AM56 °FClear.7 mph93%29.99 "Hg10 mi
2:53 AM56 °FClear.8 mph93%30.01 "Hg10 mi
1:53 AM57 °FClear.8 mph90%30.03 "Hg10 mi
12:53 AM57 °FOvercast.6 mph90%30.04 "Hg10 mi
11:53 PM
Sep 20
57 °FClear.7 mph90%30.05 "Hg10 mi
10:53 PM58 °FPassing clouds.8 mph87%30.06 "Hg10 mi
Weather by CustomWeather, © 2014

See weather overviewHow to use our weather pages